TimeCST,TemperatureF,Dew PointF,Humidity,Sea Level PressureIn,VisibilityMPH,Wind Direction,Wind SpeedMPH,Gust SpeedMPH,PrecipitationIn,Events,Conditions,WindDirDegrees,DateUTC
12:15 AM,23.0,19.4,86,30.13,10.0,Calm,Calm,-,N/A,,Overcast,0,2013-02-27 06:15:00
12:35 AM,23.0,21.2,93,30.13,10.0,Calm,Calm,-,N/A,,Overcast,0,2013-02-27 06:35:00
12:55 AM,23.0,19.4,86,30.14,10.0,NNW,5.8,-,N/A,,Overcast,330,2013-02-27 06:55:00
1:15 AM,23.0,19.4,86,30.15,10.0,NW,4.6,-,N/A,,Overcast,320,2013-02-27 07:15:00
1:35 AM,23.0,19.4,86,30.15,10.0,NW,3.5,-,N/A,,Overcast,320,2013-02-27 07:35:00
1:55 AM,21.2,19.4,93,30.16,10.0,NNW,3.5,-,N/A,,Overcast,330,2013-02-27 07:55:00
2:15 AM,21.2,19.4,93,30.16,10.0,North,3.5,-,N/A,,Overcast,360,2013-02-27 08:15:00
2:35 AM,23.0,19.4,86,30.17,10.0,NNE,6.9,-,N/A,,Overcast,20,2013-02-27 08:35:00
2:55 AM,21.2,19.4,93,30.17,10.0,NNE,4.6,-,N/A,,Overcast,30,2013-02-27 08:55:00
3:15 AM,23.0,19.4,86,30.17,10.0,NE,3.5,-,N/A,Snow,Light Snow,40,2013-02-27 09:15:00
3:35 AM,23.0,19.4,86,30.17,10.0,ENE,3.5,-,N/A,,Overcast,70,2013-02-27 09:35:00
3:55 AM,23.0,19.4,86,30.17,10.0,NE,3.5,-,N/A,,Overcast,50,2013-02-27 09:55:00
4:15 AM,23.0,19.4,86,30.18,10.0,Calm,Calm,-,N/A,,Overcast,0,2013-02-27 10:15:00
4:35 AM,23.0,19.4,86,30.19,10.0,Calm,Calm,-,N/A,,Overcast,0,2013-02-27 10:35:00
4:55 AM,23.0,19.4,86,30.20,10.0,NW,3.5,-,N/A,,Overcast,310,2013-02-27 10:55:00
5:15 AM,23.0,21.2,93,30.20,10.0,Calm,Calm,-,N/A,,Overcast,0,2013-02-27 11:15:00
5:35 AM,23.0,21.2,93,30.21,10.0,North,5.8,-,N/A,,Overcast,10,2013-02-27 11:35:00
5:55 AM,23.0,21.2,93,30.21,10.0,North,8.1,-,N/A,,Overcast,10,2013-02-27 11:55:00
6:15 AM,23.0,21.2,93,30.22,10.0,North,8.1,-,N/A,,Overcast,10,2013-02-27 12:15:00
6:55 AM,23.0,21.2,93,30.23,10.0,North,6.9,-,N/A,,Overcast,10,2013-02-27 12:55:00
7:15 AM,23.0,21.2,93,30.23,10.0,NNE,5.8,-,N/A,,Overcast,20,2013-02-27 13:15:00
7:35 AM,23.0,21.2,93,30.23,10.0,North,4.6,-,N/A,,Overcast,10,2013-02-27 13:35:00
7:55 AM,23.0,21.2,93,30.24,10.0,North,3.5,-,N/A,,Overcast,360,2013-02-27 13:55:00
8:15 AM,23.0,21.2,93,30.24,10.0,North,3.5,-,N/A,Snow,Light Snow,10,2013-02-27 14:15:00
8:35 AM,23.0,21.2,93,30.25,9.0,North,3.5,-,N/A,Snow,Light Snow,360,2013-02-27 14:35:00
8:55 AM,23.0,21.2,93,30.25,6.0,NNE,3.5,-,N/A,Snow,Light Snow,20,2013-02-27 14:55:00
9:15 AM,23.0,21.2,93,30.26,3.0,NNE,5.8,-,0.01,Snow,Light Snow,20,2013-02-27 15:15:00
9:35 AM,23.0,21.2,93,30.26,3.0,NNE,5.8,-,0.04,Snow,Light Snow,20,2013-02-27 15:35:00
9:55 AM,23.0,21.2,93,30.27,8.0,NNE,4.6,-,0.05,Snow,Light Snow,30,2013-02-27 15:55:00
10:15 AM,23.0,21.2,93,30.27,10.0,NNE,5.8,-,N/A,Snow,Light Snow,30,2013-02-27 16:15:00
10:35 AM,23.0,19.4,86,30.27,10.0,NNE,5.8,-,N/A,Snow,Light Snow,30,2013-02-27 16:35:00
10:55 AM,23.0,19.4,86,30.27,10.0,NNE,5.8,-,N/A,,Overcast,30,2013-02-27 16:55:00
11:15 AM,23.0,19.4,86,30.27,10.0,NE,6.9,-,N/A,,Overcast,40,2013-02-27 17:15:00
11:35 AM,23.0,19.4,86,30.27,10.0,NE,5.8,-,N/A,,Overcast,50,2013-02-27 17:35:00
11:55 AM,24.8,19.4,80,30.27,10.0,NE,6.9,-,N/A,,Overcast,50,2013-02-27 17:55:00
12:15 PM,24.8,19.4,80,30.28,10.0,East,5.8,-,N/A,,Overcast,80,2013-02-27 18:15:00
12:35 PM,24.8,19.4,80,30.28,10.0,East,5.8,-,N/A,,Overcast,80,2013-02-27 18:35:00
12:55 PM,24.8,19.4,80,30.28,10.0,East,4.6,-,N/A,,Overcast,90,2013-02-27 18:55:00
1:15 PM,24.8,19.4,80,30.28,10.0,ENE,3.5,-,N/A,,Overcast,70,2013-02-27 19:15:00
1:35 PM,24.8,19.4,80,30.28,10.0,ENE,4.6,-,N/A,,Overcast,60,2013-02-27 19:35:00
1:55 PM,24.8,19.4,80,30.28,10.0,ENE,5.8,-,N/A,,Overcast,60,2013-02-27 19:55:00
2:15 PM,24.8,19.4,80,30.28,10.0,ENE,4.6,-,N/A,,Overcast,70,2013-02-27 20:15:00
2:35 PM,24.8,21.2,86,30.28,10.0,ENE,3.5,-,N/A,,Overcast,70,2013-02-27 20:35:00
2:55 PM,26.6,19.4,74,30.28,10.0,Calm,Calm,-,N/A,,Overcast,0,2013-02-27 20:55:00
3:15 PM,24.8,19.4,80,30.28,10.0,Calm,Calm,-,N/A,,Overcast,0,2013-02-27 21:15:00
3:35 PM,24.8,19.4,80,30.28,10.0,ENE,3.5,-,N/A,,Overcast,60,2013-02-27 21:35:00
3:55 PM,26.6,21.2,80,30.28,10.0,ENE,3.5,-,N/A,,Overcast,70,2013-02-27 21:55:00
4:15 PM,24.8,21.2,86,30.29,10.0,Calm,Calm,-,N/A,,Overcast,0,2013-02-27 22:15:00
4:35 PM,24.8,21.2,86,30.29,10.0,Calm,Calm,-,N/A,,Overcast,0,2013-02-27 22:35:00
4:55 PM,24.8,21.2,86,30.29,10.0,Calm,Calm,-,N/A,,Overcast,0,2013-02-27 22:55:00
5:15 PM,24.8,21.2,86,30.29,10.0,ENE,3.5,-,N/A,,Overcast,60,2013-02-27 23:15:00
5:35 PM,24.8,21.2,86,30.28,10.0,ENE,6.9,-,N/A,,Overcast,60,2013-02-27 23:35:00
5:55 PM,24.8,21.2,86,30.28,10.0,ENE,9.2,-,N/A,,Overcast,70,2013-02-27 23:55:00
6:15 PM,24.8,21.2,86,30.28,10.0,East,8.1,-,N/A,,Overcast,80,2013-02-28 00:15:00
6:35 PM,23.0,21.2,93,30.28,10.0,East,8.1,-,N/A,,Overcast,90,2013-02-28 00:35:00
6:55 PM,23.0,21.2,93,30.29,10.0,East,9.2,-,N/A,,Overcast,100,2013-02-28 00:55:00
7:15 PM,23.0,19.4,86,30.28,10.0,East,8.1,-,N/A,,Overcast,100,2013-02-28 01:15:00
7:35 PM,23.0,19.4,86,30.29,10.0,East,5.8,-,N/A,,Overcast,100,2013-02-28 01:35:00
8:15 PM,23.0,19.4,86,30.29,10.0,East,4.6,-,N/A,,Overcast,80,2013-02-28 02:15:00
8:35 PM,23.0,19.4,86,30.29,10.0,East,5.8,-,N/A,,Overcast,80,2013-02-28 02:35:00
8:55 PM,21.2,19.4,93,30.28,10.0,East,6.9,-,N/A,,Overcast,80,2013-02-28 02:55:00
9:15 PM,21.2,19.4,93,30.28,10.0,East,9.2,-,N/A,,Overcast,90,2013-02-28 03:15:00
9:35 PM,21.2,19.4,93,30.28,10.0,East,8.1,-,N/A,,Overcast,90,2013-02-28 03:35:00
9:55 PM,19.4,17.6,93,30.28,10.0,East,5.8,-,N/A,,Overcast,100,2013-02-28 03:55:00
10:15 PM,19.4,17.6,93,30.29,10.0,East,5.8,-,N/A,,Overcast,100,2013-02-28 04:15:00
10:35 PM,19.4,17.6,93,30.28,10.0,East,6.9,-,N/A,,Overcast,90,2013-02-28 04:35:00
10:55 PM,19.4,17.6,93,30.28,10.0,East,5.8,-,N/A,,Overcast,100,2013-02-28 04:55:00
11:15 PM,17.6,17.6,100,30.28,10.0,East,4.6,-,N/A,,Overcast,100,2013-02-28 05:15:00
11:35 PM,19.4,17.6,93,30.28,10.0,ESE,6.9,-,N/A,,Overcast,110,2013-02-28 05:35:00